Wind from 120 at 5 knots

Air temperature 33.0° C
Dewpoint 11.0° C

Last reported at 2014-Apr-24 09:00 UTC.
Time now 2014-Apr-24 11:35 UTC

Location: N 30°54' E 041°08'.
View on Google Maps.

See reports from other nearby stations

Tides Stations Pressure Air Temp Water Temp Dewpoint Dewpoint depression Visibility Wind Speed Wind Dir Waves Ship positions

  
sailing weather and tide predictions

Arar weather

date/time (UTC)wind fromknots sea level pressurealtimeterstation pressurevisibilityair tempwater tempwave heightnotes
2014-Apr-24 10:00 090 5 33.0
2014-Apr-24 09:00 120 5 33.0
2014-Apr-24 08:00 110 6 32.0
2014-Apr-24 07:00 100 6 30.0
2014-Apr-24 06:00 070 9 27.0
2014-Apr-24 05:00 050 11 23.0
2014-Apr-24 04:00 060 8 21.0
2014-Apr-24 03:00 040 9 19.0
2014-Apr-24 02:00 030 11 19.0
2014-Apr-24 01:00 010 8 19.0
2014-Apr-24 00:00 010 11 20.0
2014-Apr-23 23:00 020 10 21.0
2014-Apr-23 22:00 350 3 22.0
2014-Apr-23 21:00 240 4 24.0
2014-Apr-23 20:00 210 2 25.0
2014-Apr-23 19:00 210 3 26.0
2014-Apr-23 18:00 220 3 27.0
2014-Apr-23 17:00 220 2 5.428.0
2014-Apr-23 16:00 260 2 5.429.0
2014-Apr-23 15:00 250 4 5.430.0
2014-Apr-23 14:00 230 1 31.0
2014-Apr-23 13:00 110 4 32.0
2014-Apr-23 12:00 360 4 32.0
2014-Apr-23 11:00 110 5 33.0
2014-Apr-23 10:00 120 8 32.0
2014-Apr-23 09:00 140 5 30.0
2014-Apr-23 08:00 050 10 29.0
2014-Apr-23 07:00 040 10 28.0
2014-Apr-23 06:00 030 12 26.0
2014-Apr-23 05:00 030 8 23.0
2014-Apr-23 04:00 020 4 20.0
2014-Apr-23 03:00 360 7 18.0
2014-Apr-23 02:00 010 10 19.0
2014-Apr-23 01:00 010 8 20.0
2014-Apr-23 00:00 020 10 20.0
2014-Apr-22 23:00 030 8 21.0
2014-Apr-22 22:00 360 7 21.0
2014-Apr-22 21:00 010 6 22.0
2014-Apr-22 20:00 010 7 23.0
2014-Apr-22 19:00 360 4 24.0
2014-Apr-22 18:00 010 6 25.0
2014-Apr-22 17:00 320 2 27.0
2014-Apr-22 16:00 010 3 28.0
2014-Apr-22 15:00 300 4 30.0
2014-Apr-22 14:00 250 2 32.0
2014-Apr-22 13:00 240 1 32.0
2014-Apr-22 12:00 240 9 32.0
2014-Apr-22 11:00 320 4 31.0